This is the latest recevied weather packets stored in our database for station/object JE0GNV-13. If no packets are shown the sender has not sent any weather packets the latest 10 day(s).
| Time | Temp. | Humidity | Pressure | Rain* | Wind** | Luminosity | Snow |
|---|---|---|---|---|---|---|---|
| 1777827601 | 13.89° C | 98% | 999.6 hPa | 5.59 mm | - | - | - |
| 1777827001 | 13.89° C | 98% | 999.9 hPa | 6.35 mm | - | - | - |
| 1777826401 | 13.89° C | 98% | 1000 hPa | 6.35 mm | - | - | - |
| 1777825802 | 13.89° C | 98% | 1000.7 hPa | 5.59 mm | - | - | - |
| 1777825200 | 13.33° C | 98% | 1001 hPa | 4.83 mm | - | - | - |
| 1777824600 | 13.33° C | 98% | 1001.1 hPa | 4.83 mm | - | - | - |
| 1777824001 | 13.33° C | 98% | 1001.3 hPa | 4.06 mm | - | - | - |
| 1777823400 | 13.33° C | 97% | 1001.6 hPa | 0 mm | - | - | - |
| 1777822801 | 13.33° C | 97% | 1001.7 hPa | 0 mm | - | - | - |
| 1777822201 | 13.33° C | 97% | 1001.8 hPa | 0 mm | - | - | - |
| 1777821601 | 13.33° C | 97% | 1002.1 hPa | 0 mm | - | - | - |
| 1777821000 | 13.33° C | 97% | 1002.2 hPa | 0 mm | - | - | - |
| 1777820401 | 13.33° C | 97% | 1002.5 hPa | 0 mm | - | - | - |
| 1777819800 | 13.33° C | 97% | 1002.5 hPa | 3.81 mm | - | - | - |
| 1777819201 | 13.33° C | 97% | 1002.5 hPa | 3.81 mm | - | - | - |
| 1777818600 | 13.33° C | 97% | 1002.9 hPa | 3.81 mm | - | - | - |
| 1777818001 | 13.33° C | 97% | 1003.1 hPa | 3.81 mm | - | - | - |
| 1777817401 | 12.78° C | 97% | 1003.1 hPa | 3.56 mm | - | - | - |
| 1777816801 | 12.78° C | 97% | 1003 hPa | 3.81 mm | - | - | - |
| 1777816201 | 12.78° C | 97% | 1003.3 hPa | 3.81 mm | - | - | - |
| 1777815600 | 12.22° C | 97% | 1003.4 hPa | 3.3 mm | - | - | - |
| 1777815000 | 12.22° C | 97% | 1003.5 hPa | 3.3 mm | - | - | - |
| 1777814400 | 12.22° C | 97% | 1003.7 hPa | 3.81 mm | - | - | - |
| 1777813800 | 12.22° C | 96% | 1003.7 hPa | 4.06 mm | - | - | - |
| 1777813201 | 12.22° C | 96% | 1004 hPa | 4.06 mm | - | - | - |
* Rain latest hour (hover to see other rain measurements)
** Current wind speed in m/s (hover to see current wind gust speed)